This is the latest recevied weather packets stored in our database for station/object AA0PB. If no packets are shown the sender has not sent any weather packets the latest 10 day(s).
| Time | Temp. | Humidity | Pressure | Rain* | Wind** | Luminosity | Snow |
|---|---|---|---|---|---|---|---|
| 1778088344 | 15.56° C | 81% | 1021.3 hPa | 0 mm | - | 198 W/m² | - |
| 1778088040 | 15.56° C | 81% | 1021.1 hPa | 0 mm | - | 180 W/m² | - |
| 1778087737 | 16.11° C | 78% | 1021 hPa | 0 mm | - | 174 W/m² | - |
| 1778087435 | 16.11° C | 79% | 1021.3 hPa | 0 mm | - | 188 W/m² | - |
| 1778087132 | 15.56° C | 79% | 1021.2 hPa | 0 mm | - | 235 W/m² | - |
| 1778086824 | 15.56° C | 78% | 1021 hPa | 0 mm | - | 228 W/m² | - |
| 1778086522 | 15.56° C | 80% | 1021.1 hPa | 0 mm | - | 225 W/m² | - |
| 1778086218 | 15.56° C | 79% | 1021.1 hPa | 0 mm | - | 242 W/m² | - |
| 1778085915 | 15.56° C | 78% | 1021.2 hPa | 0 mm | - | 234 W/m² | - |
| 1778085613 | 15° C | 80% | 1021.1 hPa | 0 mm | - | 275 W/m² | - |
| 1778085308 | 15.56° C | 79% | 1021.2 hPa | 0 mm | - | 188 W/m² | - |
| 1778085004 | 15° C | 80% | 1021.4 hPa | 0 mm | - | 179 W/m² | - |
| 1778084700 | 15.56° C | 79% | 1021.5 hPa | 0 mm | - | 166 W/m² | - |
| 1778084392 | 15.56° C | 78% | 1021.4 hPa | 0 mm | - | 175 W/m² | - |
| 1778084090 | 15° C | 81% | 1021.3 hPa | 0 mm | - | 168 W/m² | - |
| 1778083787 | 15° C | 81% | 1021.1 hPa | 0 mm | - | 144 W/m² | - |
| 1778083484 | 14.44° C | 81% | 1021.1 hPa | 0 mm | - | 176 W/m² | - |
| 1778083181 | 14.44° C | 81% | 1021.1 hPa | 0 mm | - | 169 W/m² | - |
| 1778082879 | 14.44° C | 81% | 1021.3 hPa | 0 mm | - | 124 W/m² | - |
| 1778081765 | 14.44° C | 81% | 1020.6 hPa | 0 mm | - | 170 W/m² | - |
| 1778081463 | 13.89° C | 83% | 1021 hPa | 0 mm | - | 181 W/m² | - |
| 1778081160 | 13.89° C | 83% | 1021 hPa | 0 mm | - | 113 W/m² | - |
| 1778080858 | 13.89° C | 84% | 1020.5 hPa | 0 mm | - | 108 W/m² | - |
| 1778080555 | 13.89° C | 83% | 1020.7 hPa | 0 mm | - | 82 W/m² | - |
| 1778080252 | 13.89° C | 85% | 1020.6 hPa | 0 mm | - | 140 W/m² | - |
* Rain latest hour (hover to see other rain measurements)
** Current wind speed in m/s (hover to see current wind gust speed)